Rainbow City, AL

5:22 PM CST on February 08, 2016 (GMT -0600)
Gadsden Municipal

Weather History for KGAD - May, 2013

Change the Weather History Date:

Thursday, May 2, 2013

  Actual Average Record
Temperature  
Mean Temperature 62 °F -  
Max Temperature 66 °F 74 °F 92 °F (1951)
Min Temperature 57 °F 51 °F 42 °F (1997)
Degree Days  
Heating Degree Days 4    
Growing Degree Days 12 (Base 50)    
Moisture  
Dew Point 55 °F    
Average Humidity 74    
Maximum Humidity 82    
Minimum Humidity 64    
Precipitation  
Precipitation 0.00 in - - ()
Sea Level Pressure  
Sea Level Pressure 30.12 in    
Wind  
Wind Speed 10 mph (ENE)    
Max Wind Speed 14 mph    
Max Gust Speed 18 mph    
Visibility 10 miles    
Events      
Averages and records for this station are not official NWS values.
T = Trace of Precipitation, MM = Missing Value Source: NWS Daily Summary

Daily Weather History Graph

Daily Weather History Graph

Search for Another Location

Airport or City:

Trip Planner

Search our weather history database for the weather conditions in past years. The results will help you decide how hot, cold, wet, or windy it might be!

Date:

Astronomy

May. 02, 2013 Rise Set
Actual Time 5:54 AM CDT 7:29 PM CDT
Civil Twilight 5:27 AM CDT 7:55 PM CDT
Nautical Twilight 4:55 AM CDT 8:28 PM CDT
Astronomical Twilight 4:21 AM CDT 9:01 PM CDT
Moon 1:20 AM CDT (5/2) 12:37 PM CDT (5/2)
Length of Visible Light 14h 28m
Length of Day
13h 35m
Waning Gibbous, 47% of the Moon is Illuminated
May 2
Waning Gibbous
May 9
New
May 17
First Quarter
May 24
Full
May 31
Last Quarter

Hourly Weather History & Observations

Time (CDT) Temp. Dew Point Humidity Pressure Visibility Wind Dir Wind Speed Gust Speed Precip Events Conditions
12:15 AM 64.4 °F 51.8 °F 64% 30.14 in 10.0 mi East 9.2 mph - N/A   Clear
12:35 AM 62.6 °F 51.8 °F 68% 30.13 in 10.0 mi East 10.4 mph - N/A   Clear
12:55 AM 62.6 °F 51.8 °F 68% 30.13 in 10.0 mi East 9.2 mph - N/A   Partly Cloudy
1:15 AM 62.6 °F 51.8 °F 68% 30.13 in 10.0 mi East 9.2 mph - N/A   Partly Cloudy
1:35 AM 62.6 °F 51.8 °F 68% 30.12 in 10.0 mi East 11.5 mph - N/A   Clear
1:55 AM 62.6 °F 51.8 °F 68% 30.12 in 10.0 mi ENE 9.2 mph - N/A   Clear
2:15 AM 62.6 °F 51.8 °F 68% 30.12 in 10.0 mi East 9.2 mph - N/A   Partly Cloudy
2:35 AM 62.6 °F 51.8 °F 68% 30.12 in 10.0 mi East 11.5 mph - N/A   Partly Cloudy
2:55 AM 60.8 °F 51.8 °F 72% 30.12 in 10.0 mi East 9.2 mph - N/A   Clear
3:15 AM 60.8 °F 51.8 °F 72% 30.11 in 10.0 mi East 11.5 mph 16.1 mph N/A   Clear
3:35 AM 60.8 °F 51.8 °F 72% 30.12 in 10.0 mi East 6.9 mph - N/A   Clear
3:55 AM 60.8 °F 51.8 °F 72% 30.12 in 10.0 mi ENE 8.1 mph - N/A   Clear
4:15 AM 59.0 °F 51.8 °F 77% 30.12 in 10.0 mi ENE 8.1 mph - N/A   Clear
4:35 AM 59.0 °F 51.8 °F 77% 30.12 in 10.0 mi ENE 6.9 mph - N/A   Clear
4:55 AM 57.2 °F 51.8 °F 82% 30.11 in 10.0 mi ENE 6.9 mph - N/A   Clear
5:15 AM 57.2 °F 51.8 °F 82% 30.11 in 10.0 mi ENE 6.9 mph - N/A   Clear
5:35 AM 57.2 °F 51.8 °F 82% 30.11 in 10.0 mi ENE 6.9 mph - N/A   Clear
5:55 AM 57.2 °F 51.8 °F 82% 30.11 in 10.0 mi ENE 6.9 mph - N/A   Mostly Cloudy
6:15 AM 57.2 °F 51.8 °F 82% 30.11 in 10.0 mi ENE 8.1 mph - N/A   Mostly Cloudy
6:35 AM 57.2 °F 51.8 °F 82% 30.12 in 10.0 mi ENE 8.1 mph - N/A   Mostly Cloudy
6:55 AM 59.0 °F 53.6 °F 82% 30.13 in 10.0 mi ENE 9.2 mph - N/A   Overcast
7:15 AM 60.8 °F 53.6 °F 77% 30.13 in 10.0 mi East 8.1 mph - N/A   Overcast
7:35 AM 60.8 °F 53.6 °F 77% 30.14 in 10.0 mi ENE 10.4 mph - N/A   Overcast
7:55 AM 60.8 °F 53.6 °F 77% 30.14 in 10.0 mi East 11.5 mph - N/A   Overcast
8:15 AM 62.6 °F 53.6 °F 72% 30.15 in 10.0 mi East 11.5 mph - N/A   Overcast
8:35 AM 62.6 °F 53.6 °F 72% 30.15 in 10.0 mi East 11.5 mph - N/A   Overcast
8:55 AM 62.6 °F 53.6 °F 72% 30.15 in 10.0 mi ENE 10.4 mph - N/A   Overcast
9:15 AM 62.6 °F 55.4 °F 77% 30.15 in 10.0 mi East 12.7 mph 18.4 mph N/A   Overcast
9:35 AM 62.6 °F 55.4 °F 77% 30.15 in 10.0 mi East 10.4 mph 17.3 mph N/A   Overcast
9:55 AM 62.6 °F 55.4 °F 77% 30.16 in 10.0 mi East 13.8 mph - N/A   Overcast
10:15 AM 62.6 °F 55.4 °F 77% 30.17 in 10.0 mi East 11.5 mph 16.1 mph N/A   Overcast
10:35 AM 62.6 °F 55.4 °F 77% 30.17 in 10.0 mi East 9.2 mph - N/A   Overcast
10:55 AM 62.6 °F 55.4 °F 77% 30.17 in 10.0 mi East 11.5 mph - N/A   Overcast
11:15 AM 64.4 °F 55.4 °F 73% 30.17 in 10.0 mi ENE 10.4 mph - N/A   Overcast
11:35 AM 64.4 °F 57.2 °F 77% 30.17 in 10.0 mi East 10.4 mph - N/A   Overcast
11:55 AM 64.4 °F 57.2 °F 77% 30.16 in 10.0 mi East 8.1 mph - N/A   Overcast
12:15 PM 66.2 °F 57.2 °F 73% 30.15 in 10.0 mi ENE 9.2 mph - N/A   Overcast
12:35 PM 66.2 °F 57.2 °F 73% 30.15 in 10.0 mi ENE 10.4 mph - N/A   Overcast
12:55 PM 66.2 °F 57.2 °F 73% 30.14 in 10.0 mi ENE 8.1 mph - N/A   Overcast
1:15 PM 66.2 °F 57.2 °F 73% 30.14 in 10.0 mi East 6.9 mph - N/A   Overcast
1:35 PM 66.2 °F 57.2 °F 73% 30.14 in 10.0 mi ENE 10.4 mph - N/A   Overcast
1:55 PM 66.2 °F 57.2 °F 73% 30.13 in 10.0 mi East 8.1 mph - N/A   Overcast
2:15 PM 66.2 °F 57.2 °F 73% 30.13 in 10.0 mi East 9.2 mph - N/A   Overcast
2:35 PM 66.2 °F 57.2 °F 73% 30.12 in 10.0 mi East 9.2 mph - N/A   Overcast
2:55 PM 66.2 °F 57.2 °F 73% 30.12 in 10.0 mi East 10.4 mph - N/A   Overcast
3:15 PM 66.2 °F 57.2 °F 73% 30.12 in 10.0 mi East 11.5 mph 16.1 mph N/A   Overcast
3:35 PM 66.2 °F 57.2 °F 73% 30.11 in 10.0 mi ENE 13.8 mph 18.4 mph N/A   Overcast
3:55 PM 66.2 °F 57.2 °F 73% 30.11 in 10.0 mi East 13.8 mph - N/A   Overcast
4:15 PM 66.2 °F 57.2 °F 73% 30.10 in 10.0 mi East 10.4 mph - N/A   Overcast
4:35 PM 66.2 °F 57.2 °F 73% 30.10 in 10.0 mi ENE 11.5 mph - N/A   Overcast
4:55 PM 66.2 °F 57.2 °F 73% 30.09 in 10.0 mi ENE 10.4 mph 17.3 mph N/A   Scattered Clouds
5:15 PM 66.2 °F 57.2 °F 73% 30.09 in 10.0 mi ENE 11.5 mph - N/A   Clear
5:35 PM 66.2 °F 57.2 °F 73% 30.09 in 10.0 mi ENE 9.2 mph - N/A   Partly Cloudy
5:55 PM 66.2 °F 57.2 °F 73% 30.09 in 10.0 mi ENE 11.5 mph - N/A   Scattered Clouds
6:15 PM 66.2 °F 57.2 °F 73% 30.08 in 10.0 mi ENE 10.4 mph - N/A   Mostly Cloudy
6:55 PM 66.2 °F 57.2 °F 73% 30.08 in 10.0 mi ENE 11.5 mph - N/A   Scattered Clouds
7:15 PM 64.4 °F 57.2 °F 77% 30.08 in 10.0 mi ENE 9.2 mph - N/A   Mostly Cloudy
7:35 PM 64.4 °F 55.4 °F 73% 30.08 in 10.0 mi ENE 9.2 mph - N/A   Scattered Clouds
7:55 PM 64.4 °F 55.4 °F 73% 30.08 in 10.0 mi ENE 10.4 mph - N/A   Mostly Cloudy
8:15 PM 64.4 °F 55.4 °F 73% 30.09 in 10.0 mi ENE 11.5 mph 18.4 mph N/A   Overcast
8:35 PM 64.4 °F 55.4 °F 73% 30.10 in 10.0 mi ENE 12.7 mph - N/A   Overcast
8:55 PM 64.4 °F 55.4 °F 73% 30.10 in 10.0 mi ENE 13.8 mph - N/A   Overcast
9:15 PM 64.4 °F 55.4 °F 73% 30.10 in 10.0 mi ENE 13.8 mph - N/A   Mostly Cloudy
9:35 PM 64.4 °F 55.4 °F 73% 30.10 in 10.0 mi ENE 10.4 mph - N/A   Overcast
9:55 PM 64.4 °F 55.4 °F 73% 30.10 in 10.0 mi East 9.2 mph - N/A   Mostly Cloudy
10:15 PM 64.4 °F 55.4 °F 73% 30.10 in 10.0 mi East 10.4 mph - N/A   Overcast
10:35 PM 62.6 °F 55.4 °F 77% 30.10 in 10.0 mi ENE 9.2 mph - N/A   Scattered Clouds
10:55 PM 62.6 °F 55.4 °F 77% 30.10 in 10.0 mi East 9.2 mph 16.1 mph N/A   Clear
11:15 PM 62.6 °F 55.4 °F 77% 30.09 in 10.0 mi East 11.5 mph - N/A   Clear
11:35 PM 62.6 °F 55.4 °F 77% 30.09 in 10.0 mi East 9.2 mph - N/A   Mostly Cloudy
11:55 PM 62.6 °F 55.4 °F 77% 30.09 in 10.0 mi East 12.7 mph - N/A   Overcast